Location: Kellogg
(38.0159°N, 90.0546°W)
Time: 00:20:12
(UTC+00:00)

Vanguard 2 - Pass Details

Date: 22 September 2024
Orbit: 552 x 2910 km, 32.9° (Epoch: 15 October)

Event Time Altitude Azimuth Distance (km) Brightness Sun altitude
Rises 08:10:49 0° 249° (WSW) 2,710 - -40.4°
Reaches altitude 10° 08:13:00 10° 242° (WSW) 1,829 - -40.1°
Maximum altitude 08:16:46 41° 171° (S) 889 - -39.6°
Exits shadow 08:21:18 11° 101° (ESE) 2,227 10.2 -38.9°
Drops below altitude 10° 08:21:27 10° 101° (E) 2,283 10.3 -38.8°
Sets 08:24:29 0° 94° (E) 3,495 11.5 -38.4°
